When you browse on this site, cookies collect data to enhance your experience and personalize the content and advertising you see.
Visit our Privacy Policy to learn more. By continuing to use the site, you agree to this use of cookies and data.
  • In Hungary
  • List of Countries
  • For 7 days
  • Water Temperature
  • Satellite Maps
  • Weather Map
  • News
  • Weather Widgets
  • user-avatar
    Login

    Hourly Weather Jiutai

    Today, 16 February, Saturday

    Time Temperature Precipitation Wind Pressure Humidity
    00:00 -12°C° 0 mm 2 mps 751 mmHg 81%
    01:00 -13°C° 0 mm 2 mps 751 mmHg 83%
    02:00 -13°C° 0 mm 2 mps 752 mmHg 85%
    03:00 -14°C° 0 mm 2 mps 752 mmHg 84%
    04:00 -14°C° 0 mm 2 mps 752 mmHg 84%
    05:00 -14°C° 0 mm 2 mps 752 mmHg 83%
    06:00 -14°C° 0 mm 2 mps 752 mmHg 78%
    07:00 -14°C° 0 mm 2 mps 752 mmHg 73%
    08:00 -14°C° 0 mm 2 mps 753 mmHg 72%
    09:00 -13°C° 0 mm 3 mps 752 mmHg 66%
    10:00 -12°C° 0 mm 3 mps 752 mmHg 59%
    11:00 -9°C° 0 mm 3 mps 752 mmHg 53%
    12:00 -10°C° 0 mm 4 mps 752 mmHg 49%
    13:00 -9°C° 0 mm 4 mps 752 mmHg 45%
    14:00 -7°C° 0 mm 5 mps 751 mmHg 40%
    15:00 -8°C° 0 mm 4 mps 751 mmHg 45%
    16:00 -9°C° 0 mm 4 mps 751 mmHg 50%
    17:00 -10°C° 0 mm 4 mps 750 mmHg 56%
    18:00 -11°C° 0 mm 4 mps 750 mmHg 59%
    19:00 -12°C° 0 mm 4 mps 750 mmHg 63%
    20:00 -12°C° 0 mm 4 mps 750 mmHg 66%
    21:00 -12°C° 0 mm 4 mps 750 mmHg 69%
    22:00 -14°C° 0 mm 4 mps 750 mmHg 72%
    23:00 -14°C° 0 mm 4 mps 750 mmHg 74%

    Tomorrow, 17 February, Sunday

    Time Temperature Precipitation Wind Pressure Humidity
    00:00 -14°C° 0 mm 4 mps 750 mmHg 77%
    01:00 -13°C° 0 mm 3 mps 750 mmHg 80%
    02:00 -14°C° 0 mm 3 mps 750 mmHg 83%
    03:00 -14°C° 0 mm 3 mps 750 mmHg 84%
    04:00 -14°C° 0 mm 3 mps 750 mmHg 85%
    05:00 -15°C° 0 mm 3 mps 750 mmHg 86%
    06:00 -15°C° 0 mm 4 mps 750 mmHg 83%
    07:00 -15°C° 0 mm 4 mps 751 mmHg 79%
    08:00 -14°C° 0 mm 4 mps 751 mmHg 76%
    09:00 -12°C° 0 mm 4 mps 751 mmHg 69%
    10:00 -10°C° 0 mm 4 mps 751 mmHg 63%
    11:00 -8°C° 0 mm 4 mps 751 mmHg 57%
    12:00 -7°C° 0 mm 4 mps 751 mmHg 54%
    13:00 -6°C° 0 mm 5 mps 750 mmHg 51%
    14:00 -5°C° 0 mm 5 mps 750 mmHg 49%
    15:00 -5°C° 0 mm 4 mps 750 mmHg 53%
    16:00 -7°C° 0 mm 4 mps 750 mmHg 58%
    17:00 -7°C° 0 mm 3 mps 750 mmHg 62%
    18:00 -7°C° 0 mm 3 mps 750 mmHg 64%
    19:00 -8°C° 0 mm 3 mps 750 mmHg 66%
    20:00 -9°C° 0 mm 3 mps 750 mmHg 68%
    21:00 -9°C° 0 mm 3 mps 750 mmHg 69%
    22:00 -10°C° 0 mm 4 mps 750 mmHg 69%
    23:00 -10°C° 0 mm 4 mps 750 mmHg 70%

    Day after tomorrow, 18 February, Monday

    Time Temperature Precipitation Wind Pressure Humidity
    00:00 -10°C° 0 mm 4 mps 750 mmHg 69%
    01:00 -10°C° 0 mm 4 mps 751 mmHg 69%
    02:00 -11°C° 0 mm 5 mps 751 mmHg 68%
    03:00 -12°C° 0 mm 5 mps 751 mmHg 68%
    04:00 -11°C° 0 mm 4 mps 750 mmHg 69%
    05:00 -11°C° 0 mm 4 mps 750 mmHg 69%
    06:00 -12°C° 0 mm 5 mps 751 mmHg 67%
    07:00 -11°C° 0 mm 5 mps 751 mmHg 65%
    08:00 -11°C° 0 mm 5 mps 751 mmHg 63%
    09:00 -8°C° 0 mm 5 mps 751 mmHg 57%
    10:00 -6°C° 0 mm 5 mps 751 mmHg 52%
    11:00 -5°C° 0 mm 6 mps 751 mmHg 46%
    12:00 -4°C° 0 mm 6 mps 751 mmHg 43%
    13:00 -3°C° 0 mm 6 mps 750 mmHg 41%
    14:00 -2°C° 0 mm 6 mps 750 mmHg 38%
    15:00 -2°C° 0 mm 5 mps 750 mmHg 39%
    16:00 -3°C° 0 mm 4 mps 750 mmHg 41%
    17:00 -4°C° 0 mm 4 mps 750 mmHg 42%
    18:00 -5°C° 0 mm 4 mps 750 mmHg 45%
    19:00 -5°C° 0 mm 4 mps 750 mmHg 48%
    20:00 -5°C° 0 mm 4 mps 750 mmHg 50%
    21:00 -7°C° 0 mm 4 mps 750 mmHg 51%
    22:00 -7°C° 0 mm 4 mps 750 mmHg 53%
    23:00 -6°C° 0 mm 3 mps 751 mmHg 54%

    19 February, Tuesday

    Time Temperature Precipitation Wind Pressure Humidity
    00:00 -6°C° 0 mm 3 mps 750 mmHg 55%
    01:00 -6°C° 0 mm 3 mps 750 mmHg 55%
    02:00 -6°C° 0 mm 3 mps 750 mmHg 56%
    03:00 -6°C° 0 mm 3 mps 750 mmHg 59%
    04:00 -7°C° 0 mm 3 mps 750 mmHg 61%
    05:00 -7°C° 0 mm 3 mps 750 mmHg 64%
    06:00 -7°C° 0 mm 3 mps 750 mmHg 64%
    07:00 -7°C° 0 mm 3 mps 750 mmHg 64%
    08:00 -6°C° 0 mm 3 mps 750 mmHg 64%
    09:00 -5°C° 0 mm 4 mps 750 mmHg 57%
    10:00 -3°C° 0 mm 4 mps 750 mmHg 49%
    11:00 -1°C° 0 mm 4 mps 750 mmHg 42%
    12:00 -1°C° 0 mm 4 mps 750 mmHg 39%
    13:00 0°C° 0 mm 4 mps 750 mmHg 36%
    14:00 +1°C° 0 mm 4 mps 750 mmHg 33%
    15:00 0°C° 0 mm 4 mps 750 mmHg 36%
    16:00 0°C° 0 mm 3 mps 750 mmHg 40%
    17:00 -1°C° 0 mm 2 mps 750 mmHg 43%
    18:00 -2°C° 0 mm 2 mps 750 mmHg 45%
    19:00 -2°C° 0 mm 2 mps 750 mmHg 46%
    20:00 -1°C° 0 mm 1 mps 750 mmHg 47%
    21:00 -1°C° 0 mm 1 mps 750 mmHg 48%
    22:00 -2°C° 0 mm 1 mps 750 mmHg 48%
    23:00 -2°C° 0 mm 1 mps 751 mmHg 48%

    20 February, Wednesday

    Time Temperature Precipitation Wind Pressure Humidity
    00:00 -3°C° 0 mm 1 mps 751 mmHg 48%
    01:00 -3°C° 0 mm 1 mps 750 mmHg 48%
    02:00 -3°C° 0 mm 1 mps 750 mmHg 48%
    03:00 -4°C° 0 mm 1 mps 750 mmHg 48%
    04:00 -4°C° 0 mm 1 mps 750 mmHg 48%
    05:00 -4°C° 0 mm 1 mps 750 mmHg 48%
    06:00 -4°C° 0 mm 1 mps 751 mmHg 46%
    07:00 -4°C° 0 mm 1 mps 751 mmHg 45%
    08:00 -4°C° 0 mm 1 mps 751 mmHg 43%
    09:00 -4°C° 0 mm 2 mps 752 mmHg 38%
    10:00 -2°C° 0 mm 2 mps 752 mmHg 33%
    11:00 -1°C° 0 mm 2 mps 752 mmHg 27%
    12:00 +1°C° 0 mm 2 mps 752 mmHg 25%
    13:00 +1°C° 0 mm 3 mps 751 mmHg 24%
    14:00 +2°C° 0 mm 3 mps 751 mmHg 22%
    15:00 +1°C° 0 mm 3 mps 751 mmHg 24%
    16:00 +1°C° 0 mm 2 mps 751 mmHg 26%
    17:00 -1°C° 0 mm 2 mps 751 mmHg 29%
    18:00 -2°C° 0 mm 2 mps 752 mmHg 30%
    19:00 -2°C° 0 mm 2 mps 752 mmHg 32%
    20:00 -4°C° 0 mm 3 mps 753 mmHg 33%
    21:00 -4°C° 0 mm 3 mps 753 mmHg 34%
    22:00 -5°C° 0 mm 3 mps 753 mmHg 34%
    23:00 -5°C° 0 mm 3 mps 753 mmHg 35%

    21 February, Thursday

    Time Temperature Precipitation Wind Pressure Humidity
    00:00 -5°C° 0 mm 3 mps 753 mmHg 36%
    01:00 -6°C° 0 mm 3 mps 753 mmHg 37%
    02:00 -6°C° 0 mm 3 mps 753 mmHg 38%
    03:00 -6°C° 0 mm 3 mps 753 mmHg 40%
    04:00 -7°C° 0 mm 3 mps 753 mmHg 41%
    05:00 -7°C° 0 mm 3 mps 753 mmHg 43%
    06:00 -7°C° 0 mm 3 mps 753 mmHg 41%
    07:00 -6°C° 0 mm 3 mps 753 mmHg 40%
    08:00 -6°C° 0 mm 3 mps 753 mmHg 39%
    09:00 -4°C° 0 mm 3 mps 753 mmHg 34%
    10:00 -1°C° 0 mm 3 mps 753 mmHg 30%
    11:00 0°C° 0 mm 3 mps 753 mmHg 26%
    12:00 +1°C° 0 mm 3 mps 753 mmHg 24%
    13:00 +2°C° 0 mm 3 mps 752 mmHg 22%
    14:00 +3°C° 0 mm 3 mps 752 mmHg 21%
    15:00 +2°C° 0 mm 3 mps 752 mmHg 23%
    16:00 +2°C° 0 mm 2 mps 751 mmHg 26%
    17:00 +1°C° 0 mm 2 mps 751 mmHg 28%
    18:00 -1°C° 0 mm 2 mps 751 mmHg 30%
    19:00 -2°C° 0 mm 2 mps 752 mmHg 31%
    20:00 -2°C° 0 mm 2 mps 752 mmHg 32%
    21:00 -3°C° 0 mm 2 mps 752 mmHg 33%
    22:00 -3°C° 0 mm 2 mps 751 mmHg 34%
    23:00 -3°C° 0 mm 2 mps 751 mmHg 35%
    Show more